Printer-friendly version

IAU Minor Planet Center

Minor Planet Center

(83789) 2001 TC205

Orbital Elements

The following orbital elements are taken from MPO 59993
 (83789) 2001 TC205
Epoch 2007 Oct. 27.0 TT = JDT 2454400.5                 MPC
M 305.54165              (2000.0)            P               Q
n   0.17461902     Peri.   32.31356     -0.24739216     -0.95309355
a   3.1701150      Node    72.51846     +0.84555351     -0.30025095
e   0.0797241      Incl.   10.53454     +0.47311349     +0.03823686
P   5.64           H   14.9           G   0.15           U   1
From 49 observations at 4 oppositions, 1996-2004, mean residual 0".69.
An explanation of the orbital elements is available.

These orbital elements are also available in forms suitable for loading into a number of popular planetarium-type software programs.


Ephemeris

The following ephemeris is at intervals of five days. A daily ephemeris covering the same time interval is also available.

Personalized ephemerides for this (and other) objects may be generated using the Minor Planet & Comet Ephemeris Service.

Date    TT    R. A. (2000) Decl.     Delta      r     Elong.  Phase     V
2009 10 26    13 00.34   +01 35.6    4.027    3.117    20.6     6.5    20.9

2009 11 15    13 27.02   -01 08.0    3.917    3.132    32.8     9.9    21.0
2009 11 20    13 33.53   -01 45.9    3.881    3.136    36.0    10.7    21.0
2009 11 25    13 39.95   -02 22.4    3.841    3.140    39.3    11.5    21.0
2009 11 30    13 46.28   -02 57.4    3.798    3.144    42.6    12.3    21.0
2009 12 05    13 52.49   -03 30.9    3.752    3.148    45.9    13.0    21.0
2009 12 10    13 58.58   -04 02.7    3.703    3.151    49.3    13.7    21.0
2009 12 15    14 04.53   -04 32.9    3.652    3.155    52.8    14.4    21.0
2009 12 20    14 10.33   -05 01.4    3.597    3.159    56.3    15.0    21.0
2009 12 25    14 15.95   -05 28.0    3.540    3.163    59.9    15.6    21.0
2009 12 30    14 21.38   -05 52.7    3.481    3.167    63.5    16.1    21.0
2010 01 04    14 26.60   -06 15.6    3.419    3.171    67.2    16.6    21.0
2010 01 09    14 31.59   -06 36.4    3.356    3.175    71.0    17.0    20.9
2010 01 14    14 36.32   -06 55.3    3.291    3.179    74.8    17.4    20.9
2010 01 19    14 40.77   -07 12.0    3.225    3.182    78.7    17.6    20.9
2010 01 24    14 44.90   -07 26.7    3.158    3.186    82.7    17.8    20.8
2010 01 29    14 48.70   -07 39.3    3.090    3.190    86.8    18.0    20.8
2010 02 03    14 52.14   -07 49.8    3.022    3.194    90.9    18.0    20.8
2010 02 08    14 55.19   -07 58.2    2.954    3.198    95.2    17.9    20.7
2010 02 13    14 57.81   -08 04.4    2.886    3.201    99.5    17.7    20.7
2010 02 18    14 59.99   -08 08.5    2.820    3.205   104.0    17.4    20.6
2010 02 23    15 01.68   -08 10.6    2.754    3.209   108.5    17.0    20.5
2010 02 28    15 02.88   -08 10.8    2.691    3.213   113.2    16.5    20.5
2010 03 05    15 03.56   -08 09.0    2.630    3.217   118.0    15.8    20.4
2010 03 10    15 03.71   -08 05.4    2.571    3.220   122.9    15.0    20.3
2010 03 15    15 03.30   -08 00.1    2.516    3.224   127.9    14.1    20.2
2010 03 20    15 02.35   -07 53.3    2.465    3.228   133.0    13.0    20.2
2010 03 25    15 00.86   -07 45.1    2.418    3.231   138.3    11.9    20.1
2010 03 30    14 58.85   -07 35.9    2.377    3.235   143.6    10.6    20.0
2010 04 04    14 56.35   -07 25.9    2.341    3.239   148.9     9.2    19.9
2010 04 09    14 53.42   -07 15.3    2.311    3.242   154.3     7.7    19.8
2010 04 14    14 50.10   -07 04.6    2.287    3.246   159.6     6.2    19.7
2010 04 19    14 46.48   -06 54.1    2.270    3.250   164.7     4.7    19.6
2010 04 24    14 42.63   -06 44.1    2.260    3.253   169.1     3.4    19.6
2010 04 29    14 38.65   -06 35.2    2.257    3.257   171.5     2.6    19.5
2010 05 04    14 34.63   -06 27.6    2.262    3.260   170.4     3.0    19.5
2010 05 09    14 30.66   -06 21.6    2.273    3.264   166.6     4.1    19.6
2010 05 14    14 26.84   -06 17.6    2.292    3.267   161.8     5.5    19.7
2010 05 19    14 23.26   -06 15.8    2.317    3.271   156.6     7.0    19.8
2010 05 24    14 19.98   -06 16.5    2.349    3.274   151.4     8.5    19.9
2010 05 29    14 17.07   -06 19.6    2.387    3.277   146.1     9.9    20.0
2010 06 03    14 14.58   -06 25.3    2.430    3.281   140.9    11.2    20.1
2010 06 08    14 12.54   -06 33.7    2.479    3.284   135.8    12.4    20.2
2010 06 13    14 10.97   -06 44.5    2.532    3.287   130.8    13.5    20.3
2010 06 18    14 09.90   -06 57.9    2.590    3.291   125.9    14.5    20.4
2010 06 23    14 09.32   -07 13.6    2.651    3.294   121.2    15.3    20.4
2010 06 28    14 09.24   -07 31.5    2.715    3.297   116.5    16.0    20.5
2010 07 03    14 09.64   -07 51.5    2.782    3.300   112.0    16.6    20.6
2010 07 08    14 10.50   -08 13.4    2.851    3.304   107.6    17.1    20.7
2010 07 13    14 11.81   -08 37.0    2.922    3.307   103.3    17.4    20.7
2010 07 18    14 13.56   -09 02.3    2.994    3.310    99.1    17.7    20.8
2010 07 23    14 15.72   -09 28.9    3.067    3.313    95.0    17.8    20.9
2010 07 28    14 18.26   -09 56.8    3.140    3.316    90.9    17.8    20.9
2010 08 02    14 21.17   -10 25.8    3.213    3.319    87.0    17.8    21.0

Valid HTML 4.01!